Location: Oshawa
(43.9000°N, 78.8670°W)
Time: 13:15:55
(UTC-04:00)

SPOT 5 - Visible Passes

Search period start: 20 June 2018 00:00
Search period end: 30 June 2018 00:00
Orbit: 624 x 814 km, 98.4° (Epoch: 20 June)

Date Brightness Start Highest point End Pass type
(mag) Time Alt. Az. Time Alt. Az. Time Alt. Az.
20 Jun 3.3 22:59:19 19° S 23:02:53 63° W 23:08:07 10° NNW visible
21 Jun 3.5 22:08:36 13° SE 22:12:53 47° ENE 22:17:57 10° N visible
21 Jun 4.8 23:47:50 13° SW 23:51:11 23° W 23:55:20 10° NW visible
22 Jun 3.3 22:57:08 19° S 23:00:47 66° WSW 23:06:04 10° NNW visible
23 Jun 3.6 22:06:25 12° SE 22:10:49 45° ENE 22:15:51 10° N visible
23 Jun 4.8 23:45:39 13° SW 23:49:03 25° W 23:53:21 10° NW visible
24 Jun 3.2 22:54:57 19° S 22:58:41 69° WSW 23:04:00 10° NNW visible
25 Jun 3.7 22:04:15 12° SE 22:08:44 43° ENE 22:13:46 10° N visible
25 Jun 4.7 23:43:29 14° SW 23:46:56 26° W 23:51:20 10° NW visible
26 Jun 3.2 22:52:48 19° S 22:56:35 73° WSW 23:01:56 10° NNW visible
27 Jun 3.7 22:02:05 12° SE 22:06:39 42° ENE 22:11:40 10° N visible
27 Jun 4.7 23:41:19 14° SW 23:44:49 27° W 23:49:20 10° NW visible
28 Jun 3.2 22:50:38 19° S 22:54:30 76° WSW 22:59:52 10° NNW visible
29 Jun 3.8 21:59:57 11° SE 22:04:35 40° ENE 22:09:34 10° N visible
29 Jun 4.6 23:39:11 15° SSW 23:42:43 29° W 23:47:18 10° NW visible
